Total_Precipitation_Accumulation
0.43 0.40 0.51 0.48 0.47 0.43 0.45 0.52 0.63 0.73 0.74 0.74 0.71 0.74 0.79 0.82 0.94 1.02 1.02 1.03 1.16 1.39 1.67 2.04 2.40 2.59 2.72 2.86 2.90 2.92 2.96 2.87 2.73 2.59 2.58 2.59 2.66 2.66 2.69 2.68 2.77 2.64 2.38
0.36 0.35 0.43 0.46 0.45 0.46 0.48 0.54 0.65 0.74 0.73 0.78 0.78 0.77 0.86 0.95 0.95 0.94 0.98 1.03 1.23 1.46 1.65 1.84 2.08 2.39 2.51 2.58 2.59 2.79 2.92 2.73 2.87 3.15 3.30 3.10 2.95 2.81 2.99 2.89 2.91 2.99 2.47
0.30 0.37 0.37 0.52 0.50 0.48 0.49 0.53 0.61 0.74 0.77 0.86 0.88 0.85 0.91 1.00 0.96 0.91 0.99 1.12 1.37 1.61 1.76 1.90 2.07 2.38 2.58 2.54 2.62 2.83 3.03 3.03 3.14 3.57 3.95 3.43 3.24 3.11 2.86 2.67 2.55 2.47 2.21
0.51 0.47 0.41 0.55 0.56 0.49 0.49 0.57 0.66 0.79 0.84 0.97 0.96 0.83 0.89 0.95 0.97 0.94 0.99 1.11 1.40 1.71 1.93 1.95 2.00 2.21 2.24 2.28 2.51 2.81 2.99 3.04 3.28 3.59 3.81 3.66 3.59 3.61 3.17 2.75 2.54 2.42 2.16
0.70 0.58 0.53 0.61 0.65 0.62 0.61 0.64 0.71 0.83 0.90 0.99 0.90 0.92 0.99 1.03 1.04 1.01 0.99 1.07 1.31 1.76 2.01 1.94 1.91 1.90 1.97 2.10 2.30 2.50 2.79 3.05 3.36 3.50 3.84 4.21 4.36 4.16 3.32 2.76 2.61 2.60 2.30
0.65 0.57 0.52 0.58 0.61 0.65 0.62 0.62 0.75 0.81 0.90 0.99 1.02 1.04 1.10 1.23 1.25 1.14 1.13 1.24 1.39 1.73 1.99 1.94 1.88 1.80 1.81 1.96 2.06 2.19 2.46 2.95 3.20 3.23 3.92 4.13 3.94 4.09 3.52 3.02 2.78 2.58 2.28
0.66 0.60 0.52 0.54 0.60 0.63 0.67 0.69 0.86 0.93 1.01 1.14 1.18 1.16 1.23 1.33 1.35 1.29 1.32 1.42 1.58 1.71 1.89 1.87 1.79 1.73 1.66 1.80 1.86 2.01 2.16 2.59 2.73 3.44 3.66 3.64 3.74 4.05 3.82 3.38 3.07 2.70 2.36
0.82 0.73 0.61 0.57 0.70 0.81 0.84 0.84 0.96 0.98 1.09 1.17 1.27 1.27 1.25 1.25 1.22 1.23 1.34 1.45 1.66 1.82 1.80 1.62 1.56 1.56 1.60 1.68 1.79 1.91 2.01 2.03 2.14 2.78 3.15 3.21 3.26 3.69 3.93 3.49 3.04 2.78 2.55
0.90 0.74 0.68 0.63 0.80 1.04 1.08 1.00 0.99 0.99 1.10 1.23 1.36 1.40 1.30 1.20 1.14 1.18 1.24 1.34 1.54 1.61 1.50 1.42 1.42 1.39 1.42 1.55 1.78 1.75 1.85 2.09 2.11 2.58 2.76 2.98 2.83 3.32 3.85 3.62 3.03 2.75 2.68
1.14 0.98 0.95 0.91 0.97 1.06 1.09 1.13 1.09 1.08 1.21 1.32 1.38 1.42 1.38 1.31 1.25 1.28 1.22 1.34 1.45 1.55 1.55 1.54 1.49 1.41 1.38 1.43 1.66 1.82 1.92 2.01 1.98 2.31 3.12 3.00 2.73 3.49 3.90 3.71 3.27 2.97 2.81
1.37 1.42 1.33 1.25 1.24 1.23 1.20 1.20 1.30 1.31 1.37 1.38 1.45 1.42 1.39 1.43 1.51 1.49 1.34 1.44 1.54 1.68 1.78 1.75 1.68 1.62 1.52 1.51 1.64 1.79 1.88 1.65 1.96 2.61 3.23 3.10 3.06 3.71 3.95 3.75 3.49 3.25 3.04
1.69 1.74 1.72 1.70 1.66 1.63 1.56 1.73 1.82 1.59 1.53 1.50 1.66 1.50 1.48 1.79 1.89 1.69 1.82 1.91 2.03 2.07 2.03 1.95 1.87 1.77 1.61 1.52 1.64 1.73 1.58 1.68 2.27 2.86 2.96 2.82 3.33 3.98 4.17 3.86 3.61 3.52 3.36
2.06 1.80 1.73 2.00 2.11 2.17 2.30 2.19 2.18 2.15 2.12 2.03 2.15 2.01 2.02 2.19 2.13 2.21 2.31 2.21 2.13 2.15 2.10 2.19 2.01 1.67 1.50 1.66 1.78 1.74 1.77 1.87 2.26 2.72 2.90 2.91 3.51 4.14 4.40 4.21 3.86 3.75 3.75
2.36 2.17 1.94 2.01 2.10 2.29 2.49 2.47 2.43 2.34 2.28 2.23 2.36 2.19 2.35 2.55 2.69 2.77 2.86 2.61 2.50 2.45 2.57 2.56 2.40 2.03 1.78 1.76 1.73 1.79 1.95 2.00 2.19 2.59 2.81 2.63 3.10 3.83 4.39 4.47 4.20 4.02 3.96
2.75 2.62 2.44 2.20 2.18 2.36 2.66 2.80 2.76 2.82 2.66 2.71 2.85 2.65 2.62 2.70 2.78 3.13 3.20 3.40 2.99 2.89 3.06 3.01 2.74 2.57 2.31 2.11 2.02 2.01 2.15 2.15 2.20 2.47 2.63 2.56 2.85 3.45 4.08 4.42 4.46 4.39 4.31
3.39 3.04 2.77 2.62 2.50 2.48 2.61 2.95 3.07 2.92 2.96 2.99 3.13 3.04 2.98 3.02 3.14 3.48 3.65 3.75 3.50 3.51 3.74 3.75 3.48 3.24 2.96 2.86 2.60 2.57 2.52 2.56 2.79 2.81 2.81 2.73 2.69 2.93 3.64 4.21 4.53 4.73 4.71
3.64 3.46 3.19 3.06 3.07 2.87 2.81 3.10 3.22 3.14 3.08 3.14 3.35 3.43 3.30 3.37 3.70 3.82 4.18 4.17 3.95 3.92 3.98 3.97 4.19 4.10 3.57 3.29 3.19 3.12 3.01 2.90 3.13 3.28 3.37 3.19 2.91 2.92 3.21 3.78 4.13 4.35 4.53
3.85 3.65 3.50 3.11 3.10 3.32 3.33 3.62 3.56 3.64 3.78 3.75 3.80 3.99 3.90 3.93 4.04 4.09 4.14 4.24 4.17 4.13 4.46 4.67 4.60 4.52 4.26 3.91 3.78 3.51 3.29 3.29 3.12 3.14 3.28 3.20 3.18 2.89 2.82 3.02 3.38 3.55 3.92
3.33 3.45 3.52 3.43 3.39 3.43 3.63 4.05 4.18 4.40 4.58 4.74 4.79 5.00 4.88 4.62 4.52 4.61 4.59 4.76 4.60 4.66 4.70 4.56 4.99 4.98 4.87 4.41 3.89 3.66 3.32 3.29 3.21 2.89 2.93 3.00 3.01 2.89 2.85 2.80 3.09 3.31 3.59
3.33 3.46 3.54 3.72 3.92 3.91 3.98 4.30 4.76 4.97 5.11 5.44 5.48 5.49 5.54 5.51 5.37 5.38 5.34 5.39 5.24 5.11 5.06 5.05 5.16 4.91 4.74 4.49 3.91 3.59 3.23 2.87 2.81 2.81 2.59 2.78 2.70 2.49 2.70 2.91 3.03 2.89 3.29
3.46 3.67 3.58 3.77 4.19 4.47 4.85 4.88 5.12 5.59 5.93 6.02 6.06 6.01 5.91 5.85 5.89 5.77 5.60 5.75 5.58 5.33 5.12 5.11 5.09 4.95 4.57 4.53 4.55 4.05 3.32 2.84 2.62 2.45 2.50 2.62 2.50 2.46 2.76 2.85 2.80 2.73 2.71
3.45 3.70 3.83 3.97 4.47 4.95 5.51 6.04 6.42 6.87 6.91 7.03 6.93 6.80 6.42 6.24 6.19 6.00 6.05 5.87 5.68 5.59 5.30 5.10 5.08 4.96 4.57 4.63 4.66 4.65 3.83 3.23 2.55 1.99 2.14 2.22 2.22 2.30 2.43 2.45 2.46 2.55 2.58
3.51 3.75 3.91 4.25 4.86 5.68 6.29 6.79 7.33 7.67 7.42 7.22 6.90 6.72 6.57 6.53 6.47 6.34 6.34 6.06 5.84 5.61 5.26 4.99 4.87 4.79 4.66 4.65 4.52 4.65 4.08 3.36 2.78 2.23 1.93 1.87 2.01 2.19 2.21 2.33 2.27 2.29 2.37
3.55 3.68 3.89 4.55 5.23 5.89 6.54 7.17 7.71 7.94 7.92 7.71 7.15 6.65 6.27 6.02 5.78 5.71 5.76 5.65 5.47 5.17 4.94 4.60 4.50 4.45 4.63 4.43 4.38 4.16 3.86 3.52 3.30 2.81 2.31 2.06 2.07 2.05 2.10 2.12 2.14 2.23 2.30
3.22 3.63 3.95 4.63 5.39 6.06 6.84 7.58 7.94 8.09 8.04 7.66 6.88 6.13 5.60 5.27 4.98 4.78 4.83 4.78 4.62 4.43 4.27 4.20 4.28 4.18 4.12 3.94 3.85 3.88 3.94 3.86 3.44 3.07 2.69 2.42 2.31 2.16 2.16 2.17 2.30 2.32 2.30
3.03 3.48 4.01 4.38 5.04 5.86 6.47 6.98 7.11 7.21 7.15 6.74 6.30 5.79 5.40 4.91 4.45 4.09 3.97 3.92 3.74 3.58 3.59 3.62 3.73 3.70 3.74 3.75 3.68 3.55 3.57 3.58 3.34 3.23 2.89 2.60 2.54 2.32 2.23 2.15 2.12 2.20 2.27